Miscellaneous Local Product
Issued by NWS Hastings, NE

Home | Current Version | Previous Version | Text Only | Print | Product List | Glossary Off
Versions: 1 2 3 4 5 6 7 8 9 10 11 12 13 14 15 16 17 18 19 20 21 22 23 24 25 26 27 28 29 30 31 32 33 34 35 36 37 38 39 40 41 42 43 44 45 46 47 48 49 50

000
AXUS43 KGID 192202
MISGRI

GID CWA HOURLY WEATHER ROUNDUP
NATIONAL WEATHER SERVICE HASTINGS NE
500 PM CDT SAT APR 19 2014

NOTE: "FAIR" INDICATES FEW OR NO CLOUDS BELOW 12,000 FEET WITH NO
SIGNIFICANT WEATHER AND/OR OBSTRUCTIONS TO VISIBILITY.

...SOUTH CENTRAL NEBRASKA...

CITY           SKY/WX    TMP DP  RH WIND       PRES   REMARKS
GRAND ISLAND   PTSUNNY   76  49  38 CALM      29.94F
HASTINGS       PTSUNNY   78  48  34 N7        29.92F
KEARNEY        MOSUNNY   73  50  43 NE6       29.95S
ORD            PTSUNNY   68  47  46 MISG      29.97F
YORK           CLOUDY    77  50  38 S15       29.94F
AURORA         PTSUNNY   77  50  38 S12G21    29.93F
LEXINGTON      MOSUNNY   70  49  48 CALM      29.96F
HOLDREGE       MOSUNNY   73  48  41 NE9       29.93F
HEBRON         CLOUDY    79  48  33 S18G25    29.93F

...NEBRASKA PANHANDLE...

CITY           SKY/WX    TMP DP  RH WIND       PRES   REMARKS
CHADRON        PTSUNNY   65  32  29 S8        30.00F
ALLIANCE       MOSUNNY   64  28  25 SE10      30.02F
SCOTTSBLUFF    MOSUNNY   64  33  31 SE9       30.01F
SIDNEY         PTSUNNY   63  33  32 NE6       30.05F

...WESTERN AND NORTH CENTRAL NEBRASKA...

CITY           SKY/WX    TMP DP  RH WIND       PRES   REMARKS
VALENTINE      PTSUNNY   63  16  16 E6        30.03S
AINSWORTH      PTSUNNY   67  26  21 NE7       30.02S
ONEILL         MOSUNNY   67  36  32 NE5       30.01F
BROKEN BOW     PTSUNNY   67  47  48 E10       29.98F
IMPERIAL       PTSUNNY   69  40  34 NE15      29.99F
NORTH PLATTE   MOSUNNY   66  43  43 NE14      29.97F
MCCOOK         CLOUDY    71  49  45 NE17      29.94F

...EASTERN NEBRASKA...

CITY           SKY/WX    TMP DP  RH WIND       PRES   REMARKS
NORFOLK        CLOUDY    73  48  41 NW7       29.96F
SO SIOUX CITY  CLOUDY    76  48  37 SW13      29.96S
TEKAMAH        CLOUDY    79  45  29 S22       29.95F
COLUMBUS       CLOUDY    73  48  40 S10       29.96F
ALBION         PTSUNNY   71  47  42 CALM      29.97F
OMAHA EPPLEY   PTSUNNY   79  44  28 S20       29.97F
OFFUTT AFB     MOSUNNY   78  46  31 S15       29.97F
MILLARD        PTSUNNY   78  45  31 S13G18    29.96F
LINCOLN        CLOUDY    79  48  33 SW15      29.95F
NEBRASKA CITY  MOSUNNY   80  44  27 S30G36    29.99F
BEATRICE       MOSUNNY   79  47  32 S20G25    29.96F
FALLS CITY     NOT AVBL

...NORTHERN KANSAS...

CITY           SKY/WX    TMP DP  RH WIND       PRES   REMARKS
GOODLAND       SUNNY     71  48  43 NE17      29.98S
HILL CITY      CLOUDY    83  47  28 S18G24    29.87F
PHILLIPSBURG   SUNNY     81  45  28 CALM      29.88F
SMITH CENTER   SUNNY     81  48  32 S21       29.88F
BELOIT         SUNNY     84  48  28 S20G31    29.89F
HAYS           CLOUDY    79  50  36 S29G36    29.91R
RUSSELL        CLOUDY    80  48  32 S31G40    29.89F
CONCORDIA      MOSUNNY   79  50  36 S22G31    29.94F
SALINA         MOSUNNY   82  50  32 S21G33    29.95F
TOPEKA         MOSUNNY   78  43  28 S18G24    30.04S



USA.gov is the U.S. government's official web portal to all federal, state and local government web resources and services.